Location: Unspecified
(22.6800°N, 112.2000°E)
Time: 12:38:37
(UTC+08:00)

Transit 2A - Pass Details

Date: 13 August 2021
Orbit: 595 x 963 km, 66.7° (Epoch: 16 September)

Event Time Altitude Azimuth Distance (km) Brightness Sun altitude
Rises 11:56:35 0° 6° (N) 3,421 9.3 77.6°
Reaches altitude 10° 12:01:00 10° 38° (NE) 2,567 8.9 78.4°
Maximum altitude 12:03:02 12° 58° (ENE) 2,477 8.9 78.8°
Drops below altitude 10° 12:05:06 10° 78° (ENE) 2,627 9.0 79.1°
Sets 12:09:45 0° 109° (ESE) 3,617 9.6 79.8°
